FalconeľBorsellino Airport


Codes: LICJ/PMO
Name: FalconeľBorsellino Airport
City: Palermo
Country: Italy
Elevation: 65 ft.
Website:
Wikipedia:

Photos at FalconeľBorsellino Airport


   Photos courtesy of SpottingLog. You can add your own sightings and photos by signing up for a free trial today.



EI-DTG, 04-Jan-2023
© Tobias Hottinger

EC-NTU, 04-Jan-2023
© Tobias Hottinger

LZ-CGB, 04-Jan-2023
© Tobias Hottinger

G-EZOP, 06-Jul-2019
© Andy Shaw

LZ-LDU, 06-Jul-2019
© Andy Shaw

EI-EXI, 06-Jul-2019
© Andy Shaw


Weather at FalconeľBorsellino Airport


Time (UTC)DescriptionTempratureWindCloud coverageVisibilityPressureHumidity
16-Jun-2024 03:00Scattered Clouds23┬░C11 mph, S33%10000m1013hPa65%
16-Jun-2024 06:00Broken Clouds24┬░C9 mph, S66%10000m1013hPa62%
16-Jun-2024 09:00Overcast Clouds26┬░C2 mph, NE98%10000m1013hPa59%
16-Jun-2024 12:00Overcast Clouds25┬░C13 mph, NW98%10000m1014hPa72%
16-Jun-2024 15:00Overcast Clouds25┬░C16 mph, W99%10000m1015hPa65%
16-Jun-2024 18:00Overcast Clouds25┬░C2 mph, NW95%10000m1013hPa63%
16-Jun-2024 21:00Light Rain24┬░C7 mph, W86%10000m1015hPa71%
17-Jun-2024 00:00Broken Clouds23┬░C2 mph, W78%10000m1015hPa80%
17-Jun-2024 03:00Clear Sky23┬░C2 mph, SW4%10000m1015hPa84%
17-Jun-2024 06:00Clear Sky24┬░C4 mph, W2%10000m1016hPa78%
17-Jun-2024 09:00Clear Sky25┬░C7 mph, N8%10000m1016hPa71%
17-Jun-2024 12:00Clear Sky25┬░C11 mph, NE4%10000m1016hPa73%
17-Jun-2024 15:00Clear Sky25┬░C11 mph, NE0%10000m1016hPa73%
17-Jun-2024 18:00Clear Sky24┬░C9 mph, NE0%10000m1015hPa76%
17-Jun-2024 21:00Clear Sky24┬░C7 mph, E0%10000m1017hPa73%
18-Jun-2024 00:00Clear Sky23┬░C9 mph, E0%10000m1017hPa68%
18-Jun-2024 03:00Clear Sky23┬░C9 mph, E0%10000m1016hPa66%
18-Jun-2024 06:00Clear Sky25┬░C9 mph, E0%10000m1017hPa57%
18-Jun-2024 09:00Clear Sky27┬░C9 mph, NE3%10000m1017hPa57%
18-Jun-2024 12:00Clear Sky27┬░C11 mph, NE2%10000m1018hPa60%
18-Jun-2024 15:00Clear Sky26┬░C7 mph, NE0%10000m1017hPa64%
18-Jun-2024 18:00Clear Sky25┬░C4 mph, E0%10000m1017hPa68%
18-Jun-2024 21:00Clear Sky25┬░C7 mph, SE0%10000m1018hPa54%
19-Jun-2024 00:00Few Clouds25┬░C4 mph, S20%10000m1017hPa60%
19-Jun-2024 03:00Clear Sky25┬░C4 mph, S4%10000m1017hPa60%
19-Jun-2024 06:00Clear Sky26┬░C0 mph, E2%10000m1018hPa53%
19-Jun-2024 09:00Clear Sky27┬░C7 mph, NE0%10000m1018hPa45%
19-Jun-2024 12:00Clear Sky28┬░C11 mph, NE0%10000m1016hPa52%
19-Jun-2024 15:00Clear Sky26┬░C9 mph, NW0%10000m1018hPa64%
19-Jun-2024 18:00Clear Sky26┬░C2 mph, SE1%10000m1017hPa67%
19-Jun-2024 21:00Clear Sky26┬░C4 mph, E3%10000m1017hPa58%
20-Jun-2024 00:00Broken Clouds26┬░C4 mph, E52%10000m1017hPa53%
20-Jun-2024 03:00Broken Clouds26┬░C4 mph, E53%10000m1016hPa48%
20-Jun-2024 06:00Scattered Clouds27┬░C2 mph, NE28%10000m1016hPa46%
20-Jun-2024 09:00Clear Sky27┬░C9 mph, NE0%10000m1016hPa54%
20-Jun-2024 12:00Clear Sky28┬░C11 mph, NE0%10000m1015hPa55%
20-Jun-2024 15:00Clear Sky27┬░C9 mph, NE0%10000m1014hPa58%
20-Jun-2024 18:00Clear Sky26┬░C7 mph, NE0%10000m1015hPa64%
20-Jun-2024 21:00Clear Sky25┬░C7 mph, E0%10000m1016hPa65%
21-Jun-2024 00:00Clear Sky25┬░C7 mph, SE1%10000m1015hPa54%